Weather History for KRPH - May, 2013

Change the Weather History Date:

Tuesday, May 28, 2013

  Actual Average (KMWL) Record (KMWL)
Temperature  
Mean Temperature 76 °F -  
Max Temperature 81 °F 86 °F 102 °F (2011)
Min Temperature 72 °F 64 °F 54 °F (2003)
Cooling Degree Days 12    
Growing Degree Days 26 (Base 50)    
Moisture  
Dew Point 66 °F    
Average Humidity 67    
Maximum Humidity 80    
Minimum Humidity 57    
Precipitation  
Precipitation 0.00 in - - ()
Sea Level Pressure  
Sea Level Pressure 29.77 in    
Wind  
Wind Speed 12 mph (SSE)    
Max Wind Speed 21 mph    
Max Gust Speed 31 mph    
Visibility 10 miles    
Events      
Averages and records for this station are not official NWS values.
T = Trace of Precipitation, MM = Missing Value Source: NWS Daily Summary

Daily Weather History Graph

Daily Weather History Graph

Search for Another Location

Airport or City:

Trip Planner

Search our weather history database for the weather conditions in past years. The results will help you decide how hot, cold, wet, or windy it might be!

Date:

Astronomy

May. 28, 2013 Rise Set
Actual Time 6:27 AM CDT 8:35 PM CDT
Civil Twilight 5:59 AM CDT 9:04 PM CDT
Nautical Twilight 5:25 AM CDT 9:38 PM CDT
Astronomical Twilight 4:48 AM CDT 10:15 PM CDT
Moon No Moon Rise 10:12 AM CDT (5/28)
Length of Visible Light 15h 04m
Length of Day
14h 08m
Waning Gibbous, 82% of the Moon is Illuminated
May 28
Waning Gibbous
May 31
Last Quarter
Jun 8
New
Jun 16
First Quarter
Jun 23
Full

Hourly Weather History & Observations

Time (CDT) Temp. Heat Index Dew Point Humidity Pressure Visibility Wind Dir Wind Speed Gust Speed Precip Events Conditions
12:15 AM 77.9 °F - 67.8 °F 71% 29.80 in 10.0 mi SE 8.1 mph - N/A   Clear
12:35 AM 77.9 °F - 68.0 °F 71% 29.81 in 10.0 mi SE 10.4 mph - N/A   Clear
12:55 AM 77.5 °F - 68.4 °F 73% 29.80 in 10.0 mi SSE 9.2 mph 18.4 mph N/A   Clear
1:15 AM 77.4 °F - 68.5 °F 74% 29.78 in 10.0 mi SSE 13.8 mph 19.6 mph N/A   Clear
1:35 AM 77.2 °F - 68.5 °F 75% 29.78 in 10.0 mi SSE 11.5 mph 24.2 mph N/A   Clear
1:55 AM 77.0 °F - 68.5 °F 75% 29.77 in 10.0 mi SSE 15.0 mph 23.0 mph N/A   Scattered Clouds
2:15 AM 76.5 °F - 68.5 °F 76% 29.77 in 10.0 mi SSE 12.7 mph 18.4 mph N/A   Scattered Clouds
2:35 AM 76.1 °F - 68.5 °F 77% 29.76 in 10.0 mi SSE 12.7 mph 21.9 mph N/A   Clear
2:55 AM 75.6 °F - 68.4 °F 78% 29.75 in 10.0 mi SSE 13.8 mph 21.9 mph N/A   Clear
3:15 AM 75.4 °F - 68.4 °F 79% 29.74 in 10.0 mi SSE 16.1 mph 23.0 mph N/A   Scattered Clouds
3:35 AM 75.2 °F - 68.2 °F 79% 29.74 in 10.0 mi SSE 12.7 mph 20.7 mph N/A   Scattered Clouds
3:55 AM 75.2 °F - 68.2 °F 79% 29.74 in 10.0 mi SSE 10.4 mph - N/A   Mostly Cloudy
4:15 AM 75.2 °F - 68.0 °F 78% 29.74 in 10.0 mi SSE 12.7 mph 21.9 mph N/A   Overcast
4:35 AM 75.2 °F - 67.5 °F 77% 29.74 in 10.0 mi South 13.8 mph 21.9 mph N/A   Overcast
4:55 AM 74.8 °F - 67.3 °F 77% 29.75 in 10.0 mi South 13.8 mph 19.6 mph N/A   Overcast
5:15 AM 74.8 °F - 67.1 °F 77% 29.76 in 10.0 mi SSE 10.4 mph 18.4 mph N/A   Overcast
5:35 AM 74.7 °F - 66.6 °F 76% 29.77 in 10.0 mi SSE 12.7 mph 23.0 mph N/A   Overcast
5:55 AM 74.3 °F - 66.4 °F 76% 29.78 in 10.0 mi SSE 11.5 mph 20.7 mph N/A   Overcast
6:15 AM 73.6 °F - 66.2 °F 78% 29.78 in 10.0 mi SSE 6.9 mph - N/A   Mostly Cloudy
6:35 AM 72.9 °F - 66.2 °F 80% 29.79 in 10.0 mi SSE 8.1 mph - N/A   Clear
6:55 AM 72.5 °F - 65.8 °F 80% 29.80 in 10.0 mi SE 8.1 mph 16.1 mph N/A   Clear
7:15 AM 72.1 °F - 65.7 °F 80% 29.80 in 10.0 mi SSE 9.2 mph 16.1 mph N/A   Clear
7:35 AM 72.9 °F - 65.3 °F 77% 29.81 in 10.0 mi SSE 8.1 mph 19.6 mph N/A   Clear
7:55 AM 72.7 °F - 64.9 °F 77% 29.82 in 10.0 mi SSE 13.8 mph 18.4 mph N/A   Clear
8:15 AM 72.3 °F - 64.4 °F 76% 29.82 in 10.0 mi South 13.8 mph 18.4 mph N/A   Clear
8:35 AM 72.9 °F - 64.4 °F 75% 29.82 in 10.0 mi South 11.5 mph 16.1 mph N/A   Clear
8:55 AM 74.5 °F - 64.4 °F 71% 29.81 in 10.0 mi SSE 11.5 mph 21.9 mph N/A   Clear
9:15 AM 76.1 °F - 64.2 °F 67% 29.82 in 10.0 mi South 17.3 mph 21.9 mph N/A   Scattered Clouds
9:35 AM 76.1 °F - 63.9 °F 66% 29.82 in 10.0 mi SSE 11.5 mph 23.0 mph N/A   Scattered Clouds
9:55 AM 75.7 °F - 63.7 °F 66% 29.82 in 10.0 mi SSE 16.1 mph 25.3 mph N/A   Scattered Clouds
10:15 AM 75.6 °F - 63.7 °F 66% 29.83 in 10.0 mi South 15.0 mph 23.0 mph N/A   Scattered Clouds
10:35 AM 75.7 °F - 63.5 °F 66% 29.83 in 10.0 mi South 15.0 mph 24.2 mph N/A   Scattered Clouds
10:55 AM 75.7 °F - 63.5 °F 66% 29.83 in 10.0 mi South 11.5 mph 26.5 mph N/A   Mostly Cloudy
11:15 AM 75.7 °F - 63.7 °F 66% 29.84 in 10.0 mi South 9.2 mph 21.9 mph N/A   Mostly Cloudy
11:35 AM 75.9 °F - 63.7 °F 66% 29.84 in 10.0 mi South 12.7 mph 25.3 mph N/A   Overcast
11:55 AM 76.8 °F - 64.2 °F 65% 29.83 in 10.0 mi South 11.5 mph 21.9 mph N/A   Overcast
12:15 PM 76.3 °F - 63.9 °F 65% 29.83 in 10.0 mi South 13.8 mph 23.0 mph N/A   Overcast
12:35 PM 77.0 °F - 64.2 °F 65% 29.82 in 10.0 mi SSE 10.4 mph 20.7 mph N/A   Overcast
12:55 PM 76.6 °F - 63.9 °F 65% 29.82 in 10.0 mi SSE 13.8 mph 25.3 mph N/A   Mostly Cloudy
1:15 PM 77.4 °F - 63.9 °F 63% 29.81 in 10.0 mi South 12.7 mph 25.3 mph N/A   Scattered Clouds
1:35 PM 78.4 °F - 64.4 °F 62% 29.82 in 10.0 mi South 15.0 mph 23.0 mph N/A   Scattered Clouds
1:55 PM 78.3 °F - 64.0 °F 61% 29.82 in 10.0 mi SSE 18.4 mph 27.6 mph N/A   Mostly Cloudy
2:15 PM 78.1 °F - 64.4 °F 63% 29.82 in 10.0 mi South 12.7 mph 24.2 mph N/A   Scattered Clouds
2:35 PM 77.9 °F - 64.4 °F 63% 29.81 in 10.0 mi South 15.0 mph 21.9 mph N/A   Mostly Cloudy
2:55 PM 78.3 °F - 64.0 °F 61% 29.80 in 10.0 mi SSE 17.3 mph 24.2 mph N/A   Scattered Clouds
3:15 PM 77.9 °F - 63.9 °F 62% 29.76 in 10.0 mi SE 19.6 mph 27.6 mph N/A   Scattered Clouds
3:35 PM 79.2 °F - 64.4 °F 60% 29.76 in 10.0 mi SSE 17.3 mph 26.5 mph N/A   Scattered Clouds
3:55 PM 79.9 °F - 64.6 °F 59% 29.77 in 10.0 mi SSE 15.0 mph 24.2 mph N/A   Clear
4:15 PM 79.7 °F - 65.1 °F 61% 29.76 in 10.0 mi SE 10.4 mph 16.1 mph N/A   Clear
4:35 PM 81.1 °F 82.9 °F 65.3 °F 58% 29.76 in 10.0 mi SSE 10.4 mph 18.4 mph N/A   Clear
4:55 PM 80.6 °F 82.3 °F 64.8 °F 58% 29.78 in 10.0 mi South 6.9 mph 17.3 mph N/A   Clear
5:15 PM 80.1 °F 81.9 °F 65.1 °F 60% 29.79 in 10.0 mi South 5.8 mph - N/A   Scattered Clouds
5:35 PM 80.1 °F 82.0 °F 65.3 °F 61% 29.77 in 10.0 mi SE 4.6 mph - N/A   Clear
5:55 PM 80.1 °F 82.0 °F 65.5 °F 61% 29.75 in 10.0 mi ESE 6.9 mph - N/A   Clear
6:15 PM 80.6 °F 82.7 °F 65.8 °F 61% 29.76 in 10.0 mi SE 4.6 mph - N/A   Clear
6:35 PM 80.6 °F 82.7 °F 66.2 °F 61% 29.76 in 10.0 mi SE 3.5 mph - N/A   Clear
6:55 PM 81.0 °F 83.2 °F 66.2 °F 61% 29.76 in 10.0 mi SSE 5.8 mph - N/A   Clear
7:15 PM 81.9 °F 83.7 °F 65.5 °F 57% 29.74 in 10.0 mi SE 10.4 mph 17.3 mph N/A   Clear
7:35 PM 81.5 °F 83.4 °F 65.5 °F 58% 29.72 in 10.0 mi SE 11.5 mph 18.4 mph N/A   Clear
7:55 PM 81.3 °F 83.2 °F 65.5 °F 58% 29.72 in 10.0 mi ESE 10.4 mph 16.1 mph N/A   Clear
8:15 PM 81.3 °F 83.2 °F 65.3 °F 58% 29.72 in 10.0 mi SE 8.1 mph 18.4 mph N/A   Clear
8:35 PM 81.3 °F 83.2 °F 65.5 °F 58% 29.69 in 10.0 mi SE 10.4 mph 20.7 mph N/A   Clear
8:55 PM 81.3 °F 83.2 °F 65.3 °F 58% 29.66 in 10.0 mi SE 13.8 mph 25.3 mph N/A   Clear
9:15 PM 81.5 °F 83.4 °F 65.3 °F 58% 29.67 in 10.0 mi SE 20.7 mph 29.9 mph N/A   Clear
9:35 PM 81.5 °F 83.4 °F 65.3 °F 58% 29.66 in 10.0 mi SE 16.1 mph 23.0 mph N/A   Clear
9:55 PM 81.5 °F 83.4 °F 65.3 °F 58% 29.66 in 10.0 mi SE 16.1 mph 26.5 mph N/A   Clear
10:15 PM 81.5 °F 83.4 °F 65.3 °F 58% 29.66 in 10.0 mi SE 19.6 mph 31.1 mph N/A   Clear
10:35 PM 81.1 °F 82.9 °F 65.3 °F 58% 29.67 in 10.0 mi SE 13.8 mph 25.3 mph N/A   Clear
10:55 PM 80.4 °F 82.3 °F 65.5 °F 60% 29.69 in 10.0 mi SE 12.7 mph 24.2 mph N/A   Clear
11:15 PM 79.5 °F - 65.8 °F 63% 29.69 in 10.0 mi SE 13.8 mph 21.9 mph N/A   Clear
11:35 PM 79.2 °F - 65.8 °F 64% 29.70 in 10.0 mi SSE 12.7 mph 21.9 mph N/A   Clear
11:55 PM 79.0 °F - 65.7 °F 64% 29.72 in 10.0 mi SSE 13.8 mph 21.9 mph N/A   Clear